Wind_Speed
27 33 31 32 29 24 22 19 19 21 18 15 15 17 13 12 11 10 9 9 11 10 12 11 12 13 14 15 15 14 14 13 12
27 26 27 28 28 26 28 25 25 18 15 14 15 12 10 11 11 11 9 9 10 11 12 13 14 16 16 16 17 18 19 17 15
28 30 27 29 30 27 23 24 24 18 14 11 12 13 12 10 9 9 9 9 9 10 12 12 12 12 12 12 12 14 16 18 18
33 31 29 26 26 22 22 16 19 16 15 10 11 10 9 7 8 9 8 6 6 6 6 6 6 5 5 5 5 7 9 10 12
27 32 30 26 22 22 20 17 17 11 12 12 10 9 8 7 5 6 6 6 6 6 5 4 3 3 2 3 6 7 7 7 8
31 31 29 26 24 18 16 14 16 15 14 11 9 6 2 3 4 6 7 7 7 6 5 3 3 2 4 6 7 7 8 9 11
35 33 33 29 25 22 20 19 17 15 13 8 6 4 2 3 4 6 6 5 6 6 5 4 4 0 2 4 8 9 9 10 10
25 28 30 28 28 27 23 21 19 16 12 9 7 4 3 5 6 5 5 6 6 4 5 6 5 5 6 8 11 10 6 6 7
23 30 34 31 29 26 26 25 22 19 15 11 7 5 5 6 6 6 7 7 5 3 3 3 2 4 4 6 7 11 11 10 8
28 36 40 36 31 29 28 28 24 20 16 11 8 6 6 6 6 7 7 6 4 2 2 2 2 3 3 3 7 7 9 10 11
30 40 42 40 33 33 32 27 25 21 17 12 9 7 6 6 7 7 5 4 2 2 3 2 3 3 1 5 6 7 9 12 11
36 46 45 37 36 35 31 27 24 22 17 14 11 9 7 6 8 8 6 4 2 2 5 3 4 1 3 4 6 7 11 13 15
28 41 39 36 38 35 30 27 24 21 18 15 13 9 7 8 9 8 6 4 3 2 4 5 5 2 1 4 5 8 11 14 18
35 35 32 32 33 33 31 27 23 20 17 15 12 8 8 9 7 6 6 5 3 1 5 6 0 3 5 6 6 7 11 16 19
27 26 24 31 31 30 29 24 22 17 16 13 9 8 11 9 5 4 3 3 2 4 4 2 4 7 7 8 9 12 15 17 18
26 27 31 29 29 29 26 21 16 13 12 10 9 9 11 10 7 2 2 0 4 2 2 4 7 8 9 11 13 14 14 14 14
32 32 28 22 22 26 22 14 10 10 11 10 10 11 11 9 6 3 3 2 3 2 3 4 6 8 8 9 10 11 10 10 9
17 14 16 20 21 20 14 10 8 9 8 10 11 11 8 5 5 5 5 5 6 6 4 6 7 7 8 10 12 11 8 7 5
16 19 18 18 16 14 12 9 7 7 9 9 9 8 9 9 8 6 7 8 7 8 5 6 7 7 8 8 10 12 10 6 3
13 13 15 16 14 10 7 6 8 10 10 8 8 10 10 13 11 9 10 9 8 8 8 9 9 10 9 7 9 9 12 10 5
Wind_Direction
140 136 154 175 175 180 188 171 178 195 190 196 192 206 214 226 239 247 236 244 251 233 231 245 247 262 269 263 263 267 273 275 271
142 148 140 159 170 178 177 181 185 190 189 181 180 191 205 224 234 240 244 253 267 276 275 274 277 279 280 277 272 268 269 272 270
150 158 153 153 163 170 183 187 182 184 188 196 187 199 206 220 236 242 240 241 257 269 273 276 277 279 281 279 274 273 272 267 265
159 160 162 165 162 167 179 187 186 201 196 194 186 186 194 207 237 246 247 256 276 280 285 284 286 290 299 309 303 286 278 283 280
166 164 164 165 172 175 188 200 194 180 169 171 181 193 204 213 229 246 263 288 300 302 296 290 295 324 346 319 319 321 322 321 312
173 168 170 171 169 177 167 171 170 172 176 182 172 175 198 271 274 265 278 295 305 308 300 290 296 313 348 335 332 317 315 315 315
165 168 171 170 168 170 172 180 182 187 179 178 183 195 244 291 281 280 287 295 304 303 282 263 274 342 287 289 311 303 313 315 320
157 173 175 175 174 173 177 188 195 201 198 192 204 223 271 303 312 311 311 323 324 298 261 249 257 245 259 290 302 320 6 353 341
177 186 183 182 181 182 187 200 200 199 202 199 209 237 273 303 317 317 319 329 333 302 253 285 113 35 6 355 5 18 25 12 6
203 194 191 192 192 196 201 206 208 209 206 205 214 244 271 303 310 311 314 324 322 298 338 27 21 9 348 357 345 18 18 11 7
203 199 198 198 197 202 204 208 211 213 213 215 226 247 275 297 304 304 303 307 337 1 335 271 183 179 213 313 335 352 354 354 354
212 203 201 208 206 203 204 208 213 216 217 222 235 250 269 299 305 296 292 291 301 309 3 1 199 220 283 305 327 333 347 348 348
224 210 202 203 203 204 207 206 214 218 219 226 238 254 283 303 299 290 276 264 289 351 7 96 114 140 256 279 308 314 328 332 337
213 207 191 204 207 206 208 209 210 215 224 231 241 263 287 297 293 283 276 280 282 342 112 130 108 306 259 276 288 306 313 323 332
184 196 201 207 203 204 203 204 204 219 233 231 241 270 287 284 281 310 331 311 164 154 151 88 353 324 307 305 311 313 315 323 328
165 185 191 197 195 191 191 199 216 235 236 239 257 276 284 279 274 256 157 204 196 203 244 7 359 349 332 310 311 312 318 322 328
167 176 182 192 201 195 192 201 234 243 241 247 272 288 283 267 262 218 187 164 203 296 349 344 334 347 3 352 338 327 321 319 321
155 169 186 199 206 205 211 209 227 240 255 274 280 282 259 228 214 223 244 247 248 269 316 331 322 326 345 358 357 346 332 329 335
156 174 183 191 196 194 195 207 241 272 290 284 284 281 251 229 259 240 248 262 262 253 277 307 303 305 317 332 349 357 356 340 328
167 171 177 183 191 202 226 259 288 302 299 298 301 294 276 248 245 249 263 269 268 268 285 291 292 304 289 301 330 358 13 1 314
Height
1512 1515 1517 1519 1524 1529 1531 1534 1537 1541 1543 1546 1546 1547 1546 1546 1547 1548 1548 1547 1547 1547 1546 1545 1545 1545 1544 1543 1542 1539 1538 1538 1537
1513 1515 1517 1520 1523 1529 1532 1535 1539 1545 1543 1541 1543 1545 1545 1544 1546 1546 1545 1545 1545 1544 1543 1542 1541 1540 1538 1537 1535 1534 1533 1533 1533
1511 1513 1516 1519 1524 1527 1535 1538 1538 1540 1541 1541 1541 1543 1544 1544 1544 1544 1544 1543 1543 1542 1541 1539 1537 1535 1533 1532 1531 1530 1529 1529 1528
1503 1508 1514 1518 1522 1523 1530 1536 1537 1537 1537 1540 1541 1542 1543 1542 1542 1541 1541 1540 1540 1539 1538 1536 1533 1531 1530 1529 1528 1527 1527 1525 1523
1507 1507 1511 1516 1520 1523 1527 1532 1534 1538 1540 1541 1540 1541 1541 1541 1540 1539 1538 1537 1537 1536 1534 1533 1531 1530 1529 1528 1527 1525 1522 1521 1521
1505 1507 1510 1513 1517 1520 1524 1530 1534 1537 1539 1540 1540 1540 1539 1538 1538 1537 1535 1535 1534 1532 1531 1530 1529 1528 1527 1526 1525 1522 1520 1519 1518
1499 1505 1508 1511 1517 1521 1522 1531 1534 1538 1539 1539 1538 1539 1539 1537 1535 1534 1533 1532 1531 1530 1528 1528 1527 1527 1526 1525 1523 1521 1519 1518 1517
1500 1506 1510 1512 1515 1517 1522 1530 1533 1537 1539 1539 1539 1539 1538 1536 1534 1532 1530 1529 1528 1527 1526 1526 1526 1526 1525 1524 1522 1519 1518 1517 1515
1494 1501 1508 1510 1514 1516 1520 1529 1532 1535 1537 1538 1538 1538 1537 1534 1532 1530 1529 1527 1526 1525 1525 1524 1524 1524 1523 1522 1521 1518 1517 1516 1514
1492 1496 1501 1504 1506 1513 1519 1525 1528 1532 1534 1535 1536 1535 1534 1532 1531 1529 1528 1526 1524 1523 1522 1522 1522 1522 1522 1521 1520 1518 1517 1515 1513
1487 1491 1494 1500 1502 1511 1516 1521 1524 1528 1531 1532 1532 1531 1531 1530 1529 1528 1526 1525 1523 1522 1520 1520 1520 1520 1520 1519 1518 1517 1515 1513 1512
1482 1484 1488 1494 1500 1508 1514 1518 1523 1526 1528 1529 1530 1529 1528 1527 1527 1526 1525 1523 1521 1520 1518 1517 1517 1518 1517 1517 1516 1514 1513 1511 1510
1490 1487 1481 1490 1501 1509 1515 1518 1522 1525 1526 1527 1527 1525 1525 1524 1524 1523 1522 1521 1520 1519 1517 1516 1517 1516 1516 1514 1514 1513 1511 1509 1507
1473 1479 1474 1489 1501 1508 1516 1519 1519 1523 1524 1524 1525 1524 1523 1521 1521 1521 1521 1520 1518 1517 1516 1516 1515 1514 1513 1513 1512 1511 1510 1507 1504
1469 1479 1485 1494 1501 1509 1515 1517 1521 1521 1520 1521 1521 1521 1522 1520 1519 1519 1518 1518 1517 1516 1516 1515 1514 1513 1511 1511 1509 1508 1507 1504 1501
1475 1486 1492 1499 1506 1509 1512 1516 1520 1521 1520 1521 1520 1519 1519 1518 1518 1518 1518 1518 1517 1516 1514 1513 1512 1511 1509 1508 1507 1506 1504 1501 1499
1483 1489 1495 1498 1503 1506 1510 1515 1517 1519 1520 1520 1517 1517 1517 1518 1516 1516 1516 1517 1516 1515 1513 1512 1511 1510 1508 1507 1505 1503 1501 1499 1498
1490 1494 1498 1504 1508 1510 1513 1515 1516 1516 1516 1516 1515 1514 1516 1517 1516 1515 1514 1515 1514 1513 1511 1510 1509 1508 1507 1506 1504 1502 1499 1498 1496
1497 1500 1502 1506 1508 1510 1513 1513 1515 1515 1513 1512 1512 1513 1514 1514 1513 1512 1512 1512 1511 1510 1509 1507 1507 1506 1505 1504 1503 1501 1498 1496 1495
1501 1501 1502 1505 1508 1508 1508 1509 1511 1510 1510 1509 1509 1510 1511 1510 1510 1510 1509 1509 1508 1507 1506 1505 1504 1503 1502 1502 1501 1499 1497 1495 1494